[[{"header":{"parameterUnit":"m.s-1","parameterCategory":2,"la1":30.2991,"la2":30.254,"lo1":-89.0895,"lo2":-89.0444,"dy":0.0017,"dx":0.0017,"nx":28,"ny":28,"refTime":"2025-12-28T09:00:00:Z","depth":"0","parameterNumber":2,"parameterNumberName":"U-component_of_CURRENTS"},"data":[0,0,0,0,0,0,0,0,0,0,0,0,0,0,0,0,0,0,0,0,0,0,0,0,0,0,0,0,0,0,0,0,0,0,0,0,0,0,0,0,0,0,0,0,0,0,0,0,0,0,0,0,0,0,0,0,0,0,0.282,0.2819,0,0.2795,0.2795,0.2795,0.2793,0.2793,0.2793,0.2794,0.2782,0.2782,0.2781,0,0,0,0,0,0,0,0,0,0,0,0,0,0.2889,0.2887,0.282,0.2819,0.2819,0.2795,0.2795,0.2794,0.2793,0.2793,0.2793,0.2794,0.2783,0.2782,0.2781,0,0,0,0,0,0,0,0,0,0,0,0,0,0.2861,0.2887,0.282,0.2815,0.2815,0.2795,0.2795,0.2794,0.2793,0.2793,0.2793,0.2794,0.2783,0.2782,0.2781,0.2768,0,0,0.2779,0.2778,0,0,0,0,0,0,0,0,0.2863,0.2859,0.2816,0.2816,0.2815,0.2797,0.2815,0.2786,0.2793,0.2801,0.2794,0.2794,0.2788,0.2787,0.2781,0.2768,0.2767,0.2779,0.2778,0.2778,0.2777,0,0,0,0,0,0,0,0.2864,0.286,0.281,0.2816,0.2815,0.2823,0.2819,0.281,0.2793,0.28,0.28,0.2797,0.2788,0.2782,0.2781,0.2767,0.2779,0.2778,0.2777,0.2777,0.2762,0.2762,0,0,0,0,0,0,0.2865,0.2861,0.2811,0.2809,0.284,0.2821,0.2817,0.2803,0.2793,0.2792,0.2797,0.2797,0.2783,0.2782,0.2781,0.2761,0.2778,0.2777,0.2777,0.2762,0.2762,0.2762,0,0,0,0,0,0,0.2867,0.2861,0.2812,0.2836,0.283,0.2819,0.2803,0.2802,0.2796,0.279,0.2789,0.2793,0.2784,0.2782,0.2772,0.276,0.2777,0.2776,0.2762,0.2762,0.2762,0.2723,0,0,0,0,0,0,0.2869,0.2861,0.2852,0.2835,0.2829,0.2795,0.2803,0.2801,0.2794,0.2794,0.2786,0.2786,0.2784,0.2773,0.2771,0.276,0.2775,0.2762,0.2762,0.2762,0.2724,0.2722,0.272,0,0,0,0,0,0.2871,0.2849,0.2851,0.2845,0.2815,0.2794,0.2791,0.2786,0.2793,0.2784,0.2784,0.2786,0.2773,0.2772,0.277,0.2758,0.2761,0.2762,0.2762,0.2725,0.2722,0.272,0,0,0,0,0,0,0.2874,0.2847,0.2848,0.282,0.2809,0.2794,0.2781,0.2785,0.2776,0.2777,0.2779,0.2778,0.277,0.2771,0.277,0.2758,0.2771,0.277,0.2744,0.2741,0.2739,0.273,0.2775,0,0,0,0,0,0.2871,0.2846,0.2831,0.2809,0.2801,0.2794,0.2786,0.2782,0.2774,0.2771,0.2765,0.2765,0.2768,0.276,0.2762,0.2744,0.2767,0.274,0.2738,0.2735,0.2729,0.2757,0.2756,0.2763,0.2763,0.2763,0,0,0.2865,0.2848,0.2834,0.2808,0.2797,0.2774,0.2789,0.277,0.2753,0.277,0.2743,0.2757,0.2765,0.2752,0.2748,0.2749,0.2748,0.2736,0.2734,0.2728,0.2757,0.2756,0.2756,0.2763,0.2763,0.2763,0,0,0.2837,0.2826,0.2796,0.2785,0.2766,0.2758,0.2754,0.2737,0.2731,0.2713,0.2729,0.2736,0.2723,0.2729,0.2733,0.2719,0.2742,0.2722,0.2691,0.2718,0.2718,0.2718,0.2754,0.2758,0.2713,0.2713,0.2713,0,0.2835,0.279,0.2786,0.2758,0.2739,0.275,0.2716,0.2712,0.2696,0.2686,0.2699,0.27,0.2713,0.2704,0.2706,0.2712,0.2736,0.2697,0.2715,0.2715,0.2715,0.2753,0.2757,0.2711,0.2711,0.2711,0.2712,0,0.2781,0.2753,0.2733,0.2698,0.2682,0.2653,0.2647,0.2635,0.2635,0.2633,0.2627,0.2649,0.2651,0.2661,0.2679,0.2685,0.2705,0.2714,0.2718,0.2712,0.2753,0.2758,0.2708,0.2709,0.271,0.271,0,0,0.2756,0.2704,0.2697,0.2666,0.2644,0.2618,0.2597,0.257,0.2553,0.2559,0.2537,0.2563,0.2588,0.2595,0.2623,0.2646,0.2683,0.2678,0.268,0.2708,0.2751,0.2722,0.2726,0.2694,0.2695,0.2695,0.2781,0,0.2713,0.2642,0.2631,0.2567,0.2527,0.253,0.2507,0.2494,0.2493,0.248,0.2514,0.2514,0.2559,0.2567,0.2598,0.266,0.2693,0.2659,0.2757,0.276,0.273,0.2729,0.2627,0.269,0.2786,0.2787,0.2787,0,0.2658,0.2616,0.254,0.2486,0.247,0.2443,0.2401,0.2386,0.239,0.2395,0.2411,0.2442,0.248,0.2522,0.262,0.2597,0.2674,0.2725,0.2729,0.2717,0.274,0.2711,0.2696,0.2557,0.2795,0.2795,0.2794,0,0.2613,0.2549,0.2479,0.2461,0.241,0.2383,0.2366,0.2357,0.2339,0.235,0.2344,0.2392,0.242,0.2509,0.2625,0.2626,0.2736,0.2752,0.28,0.28,0.2738,0.273,0.2591,0.2828,0.2828,0.2827,0.2827,0,0.2556,0.2501,0.2454,0.2414,0.2348,0.2338,0.2283,0.2282,0.2278,0.2257,0.2305,0.2308,0.2419,0.2493,0.2605,0.2713,0.2727,0.2793,0.2814,0.2722,0.2713,0.261,0.2565,0.2831,0.283,0.2829,0.2829,0,0.2505,0.247,0.2394,0.2338,0.232,0.2276,0.2237,0.2207,0.2217,0.2194,0.2197,0.2251,0.2348,0.2463,0.2611,0.2679,0.27,0.2834,0.2722,0.2727,0.2617,0.2575,0.2411,0.2378,0.2885,0.2884,0.2884,0,0.2466,0.2422,0.2344,0.2303,0.2274,0.2219,0.2185,0.2178,0.2155,0.2162,0.2151,0.2224,0.2275,0.2464,0.2606,0.2772,0.2684,0.2751,0.2729,0.2581,0.2552,0.2431,0.2408,0.2647,0.2645,0.2643,0.2641,0,0.2408,0.2383,0.2323,0.225,0.2197,0.2134,0.2094,0.2067,0.2064,0.2056,0.2066,0.2107,0.2273,0.2371,0.2564,0.2667,0.256,0.2719,0.2587,0.2362,0.22,0.2188,0.263,0.2626,0.2627,0.2628,0.2629,0.263,0.2376,0.2332,0.2267,0.2191,0.2127,0.2057,0.2005,0.1983,0.1949,0.1933,0.1993,0.2032,0.2142,0.2399,0.2473,0.2459,0.2493,0.2399,0.2371,0.2269,0.2178,0.2585,0.2586,0.2587,0.2588,0.2589,0.259,0,0.234,0.2289,0.2217,0.2115,0.203,0.2015,0.1943,0.1897,0.1858,0.1877,0.1891,0.194,0.2007,0.21,0.2151,0.2097,0.2054,0.2022,0.1809,0.1823,0.22,0.2128,0.2001,0.2001,0.2001,0.2001,0.2001,0.2001,0.2315,0.2237,0.2195,0.2047,0.1977,0.1871,0.1826,0.1778,0.1771,0.1733,0.1731,0.176,0.1758,0.171,0.164,0.1663,0.1539,0.1459,0.1488,0.1713,0.1744,0.1774,0.1691,0.1474,0.1473,0.1037,0.1033,0.103]},{"header":{"parameterUnit":"m.s-1","parameterCategory":2,"la1":30.2991,"la2":30.254,"lo1":-89.0895,"lo2":-89.0444,"dy":0.0017,"dx":0.0017,"nx":28,"ny":28,"refTime":"2025-12-28T09:00:00:Z","depth":"0","parameterNumber":3,"parameterNumberName":"V-component_of_CURRENTS"},"data":[0,0,0,0,0,0,0,0,0,0,0,0,0,0,0,0,0,0,0,0,0,0,0,0,0,0,0,0,0,0,0,0,0,0,0,0,0,0,0,0,0,0,0,0,0,0,0,0,0,0,0,0,0,0,0,0,0,0,0.0201,0.02,0,0.017,0.017,0.017,0.0157,0.0157,0.0157,0.0157,0.0138,0.0137,0.0137,0,0,0,0,0,0,0,0,0,0,0,0,0,0.0249,0.0248,0.0201,0.02,0.02,0.017,0.017,0.017,0.0157,0.0157,0.0157,0.0157,0.0138,0.0138,0.0137,0,0,0,0,0,0,0,0,0,0,0,0,0,0.0225,0.0248,0.0201,0.0189,0.0188,0.017,0.017,0.017,0.0157,0.0157,0.0157,0.0157,0.0138,0.0138,0.0137,0.0134,0,0,0.0135,0.0134,0,0,0,0,0,0,0,0,0.0227,0.0224,0.0191,0.019,0.0188,0.0166,0.018,0.0158,0.0157,0.017,0.0157,0.0157,0.0148,0.0146,0.0142,0.0133,0.0132,0.0135,0.0134,0.0134,0.0134,0,0,0,0,0,0,0,0.0228,0.0225,0.019,0.0191,0.0189,0.0186,0.0182,0.0176,0.016,0.0168,0.0167,0.0162,0.0147,0.0143,0.0142,0.0132,0.0135,0.0134,0.0134,0.0133,0.016,0.0161,0,0,0,0,0,0,0.023,0.0226,0.0191,0.0189,0.0207,0.0185,0.0181,0.0174,0.016,0.0158,0.0162,0.0162,0.0144,0.0142,0.0141,0.0169,0.0134,0.0133,0.0133,0.0159,0.016,0.0162,0,0,0,0,0,0,0.0231,0.0227,0.0192,0.0206,0.0201,0.0184,0.0176,0.0174,0.0169,0.0155,0.0153,0.0161,0.0144,0.0142,0.0146,0.0167,0.0133,0.0132,0.0158,0.0159,0.0161,0.0204,0,0,0,0,0,0,0.0233,0.0228,0.0224,0.0206,0.0201,0.0184,0.0176,0.0173,0.0166,0.0165,0.0153,0.0151,0.0144,0.0148,0.0146,0.0165,0.0132,0.0156,0.0158,0.016,0.0201,0.0207,0.0212,0,0,0,0,0,0.0234,0.0226,0.0224,0.022,0.0196,0.0184,0.0181,0.0169,0.0166,0.0165,0.0165,0.0152,0.016,0.0148,0.0145,0.0165,0.0155,0.0158,0.016,0.0199,0.0206,0.0212,0,0,0,0,0,0,0.024,0.0224,0.0221,0.0207,0.0199,0.0181,0.0174,0.017,0.0169,0.0168,0.016,0.0158,0.0173,0.0163,0.015,0.0181,0.0158,0.016,0.0188,0.0195,0.02,0.021,0.0131,0,0,0,0,0,0.0241,0.0234,0.022,0.0209,0.0204,0.0192,0.0185,0.0179,0.0173,0.0171,0.0168,0.017,0.0181,0.0182,0.0184,0.0194,0.0187,0.0208,0.0214,0.0218,0.0227,0.0234,0.024,0.017,0.017,0.017,0,0,0.024,0.023,0.0225,0.0211,0.0201,0.0201,0.0187,0.0177,0.0187,0.017,0.0182,0.0185,0.0188,0.0207,0.0212,0.02,0.0235,0.0222,0.0225,0.0231,0.0237,0.0244,0.025,0.0172,0.0171,0.0171,0,0,0.0234,0.0225,0.0218,0.0215,0.0204,0.0202,0.0201,0.019,0.0195,0.0204,0.0207,0.0226,0.0224,0.0244,0.0252,0.0288,0.0263,0.0284,0.0318,0.0325,0.0331,0.0336,0.0333,0.0338,0.0287,0.0287,0.0287,0,0.0232,0.0225,0.0215,0.0212,0.0214,0.0206,0.021,0.0214,0.0211,0.0227,0.0213,0.0251,0.0249,0.0295,0.0309,0.0302,0.0291,0.0292,0.0332,0.0336,0.0341,0.0337,0.0341,0.0289,0.0289,0.0289,0.0288,0,0.0224,0.0223,0.0218,0.0219,0.0224,0.0221,0.0231,0.0243,0.0249,0.0259,0.0298,0.0305,0.033,0.0337,0.0331,0.0373,0.0351,0.0336,0.0313,0.035,0.0344,0.0348,0.0292,0.0292,0.0291,0.029,0,0,0.0207,0.0212,0.0211,0.0223,0.0229,0.0234,0.026,0.0287,0.0316,0.0324,0.0367,0.0394,0.0399,0.041,0.0414,0.0423,0.0444,0.0391,0.0391,0.0386,0.0447,0.0443,0.0445,0.0427,0.0428,0.0429,0.043,0,0.0204,0.0208,0.0215,0.0236,0.0242,0.0261,0.0293,0.0321,0.0345,0.0384,0.0411,0.0445,0.0427,0.0444,0.0454,0.0451,0.0455,0.0445,0.0415,0.0415,0.0403,0.0451,0.051,0.0516,0.0433,0.0433,0.0434,0,0.0193,0.0201,0.0215,0.0259,0.0265,0.0283,0.0342,0.0369,0.0425,0.0446,0.0485,0.0498,0.0538,0.0506,0.0519,0.0508,0.0481,0.047,0.0469,0.0454,0.0417,0.0467,0.0526,0.0462,0.0439,0.0439,0.0438,0,0.0187,0.0208,0.0225,0.0234,0.0275,0.03,0.0332,0.0387,0.0426,0.0486,0.0519,0.0557,0.0585,0.0565,0.0548,0.0526,0.055,0.0515,0.0487,0.0486,0.0527,0.0528,0.0522,0.0515,0.0515,0.0515,0.0515,0,0.0181,0.0195,0.0224,0.0232,0.0276,0.0305,0.0362,0.0401,0.0465,0.0525,0.0549,0.0607,0.0597,0.0612,0.0572,0.0554,0.0567,0.0508,0.0495,0.0544,0.0546,0.0484,0.0436,0.0515,0.0515,0.0515,0.0515,0,0.0167,0.018,0.0205,0.025,0.0269,0.0301,0.0376,0.0424,0.0477,0.0556,0.0577,0.0648,0.0678,0.0662,0.0647,0.0595,0.0556,0.0552,0.0609,0.0602,0.0499,0.0452,0.0462,0.0458,0.0517,0.0517,0.0517,0,0.0157,0.0166,0.0213,0.0239,0.0259,0.0311,0.0357,0.0422,0.0477,0.0589,0.0633,0.0694,0.0771,0.0758,0.0696,0.0643,0.0583,0.0617,0.0589,0.0518,0.0454,0.0444,0.044,0.0659,0.066,0.0661,0.0662,0,0.0147,0.0163,0.019,0.0241,0.0286,0.0345,0.0412,0.0459,0.0548,0.0626,0.0742,0.0817,0.084,0.0862,0.0786,0.073,0.0605,0.0632,0.0558,0.0571,0.0563,0.0546,0.0617,0.067,0.067,0.0669,0.0668,0.0668,0.0144,0.0166,0.0206,0.0258,0.031,0.0385,0.0447,0.0531,0.0635,0.0794,0.0838,0.1006,0.1005,0.0943,0.0832,0.0669,0.0654,0.062,0.057,0.0567,0.0566,0.0647,0.0679,0.0679,0.0678,0.0677,0.0677,0,0.0148,0.0183,0.0228,0.0297,0.0359,0.0388,0.0495,0.0579,0.0714,0.0898,0.1032,0.1194,0.1134,0.102,0.0801,0.0648,0.0612,0.0563,0.0568,0.0565,0.0647,0.0654,0.0683,0.0683,0.0683,0.0683,0.0684,0.0684,0.0155,0.0198,0.0229,0.0328,0.0383,0.0488,0.0557,0.069,0.0842,0.1111,0.1299,0.144,0.1384,0.0933,0.0641,0.0571,0.0478,0.0478,0.0399,0.0441,0.0443,0.0444,0.0441,0.0425,0.0424,0.039,0.0389,0.0388]}],[{"header":{"parameterUnit":"m.s-1","parameterCategory":2,"la1":30.2991,"la2":30.254,"lo1":-89.0895,"lo2":-89.0444,"dy":0.0017,"dx":0.0017,"nx":28,"ny":28,"refTime":"2025-12-28T09:00:00:Z","depth":"2","parameterNumber":2,"parameterNumberName":"U-component_of_CURRENTS"},"data":[0,0,0,0,0,0,0,0,0,0,0,0,0,0,0,0,0,0,0,0,0,0,0,0,0,0,0,0,0,0,0,0,0,0,0,0,0,0,0,0,0,0,0,0,0,0,0,0,0,0,0,0,0,0,0,0,0,0,0.1019,0.1019,0,0.0989,0.0989,0.0988,0.0991,0.0992,0.0992,0.0993,0.0983,0.0982,0.0981,0,0,0,0,0,0,0,0,0,0,0,0,0,0.1053,0.1053,0.1019,0.1019,0.1018,0.0989,0.0989,0.0988,0.0991,0.0992,0.0992,0.0993,0.0983,0.0982,0.0981,0,0,0,0,0,0,0,0,0,0,0,0,0,0.1031,0.1052,0.1019,0.1017,0.1017,0.0989,0.0989,0.0988,0.0991,0.0992,0.0992,0.0993,0.0983,0.0982,0.0981,0.0956,0,0,0.0977,0.0977,0,0,0,0,0,0,0,0,0.1032,0.103,0.1018,0.1017,0.1017,0.0996,0.0997,0.0979,0.099,0.0999,0.0993,0.0994,0.0989,0.0988,0.0978,0.0956,0.0955,0.0977,0.0976,0.0976,0.0976,0,0,0,0,0,0,0,0.1034,0.1031,0.1006,0.1017,0.1017,0.101,0.1007,0.0993,0.0989,0.0998,0.0999,0.0998,0.0989,0.0979,0.0978,0.0955,0.0977,0.0976,0.0975,0.0975,0.0996,0.0997,0,0,0,0,0,0,0.1041,0.1032,0.1007,0.1005,0.1028,0.1008,0.1006,0.1001,0.0989,0.0988,0.0997,0.0998,0.0981,0.0979,0.0977,0.102,0.0976,0.0975,0.0974,0.0994,0.0996,0.0997,0,0,0,0,0,0,0.1041,0.1038,0.1008,0.1019,0.1015,0.1007,0.1001,0.1,0.101,0.0987,0.0987,0.1011,0.0981,0.0979,0.0989,0.1017,0.0974,0.0973,0.0993,0.0995,0.0997,0.106,0,0,0,0,0,0,0.1042,0.1039,0.1044,0.102,0.1015,0.1006,0.1,0.0998,0.1007,0.1008,0.0999,0.0998,0.0982,0.0991,0.0988,0.1015,0.0972,0.0991,0.0994,0.0996,0.1056,0.1063,0.107,0,0,0,0,0,0.1044,0.1038,0.1044,0.1042,0.102,0.1007,0.1004,0.1,0.1007,0.1013,0.1014,0.0999,0.1005,0.0991,0.0987,0.1014,0.099,0.0993,0.0996,0.1053,0.1062,0.107,0,0,0,0,0,0,0.1053,0.1037,0.1044,0.1034,0.1033,0.1008,0.1011,0.1012,0.1015,0.1023,0.1007,0.1006,0.1027,0.1011,0.0997,0.1029,0.0998,0.1,0.1043,0.1051,0.1058,0.1062,0.0971,0,0,0,0,0,0.106,0.1054,0.1043,0.104,0.1041,0.1033,0.1031,0.1031,0.1026,0.1029,0.1026,0.1027,0.1031,0.1035,0.103,0.1041,0.1058,0.1059,0.1066,0.1072,0.1074,0.113,0.1143,0.1007,0.1007,0.1007,0,0,0.1062,0.1054,0.1052,0.1043,0.1041,0.1042,0.1034,0.1037,0.1045,0.1026,0.1045,0.1048,0.1039,0.1057,0.1066,0.1051,0.1124,0.1076,0.1081,0.1079,0.1135,0.1148,0.116,0.1009,0.1008,0.1008,0,0,0.1062,0.1062,0.1061,0.1061,0.1064,0.1058,0.1067,0.1061,0.1071,0.1083,0.1082,0.1106,0.1099,0.1108,0.1108,0.115,0.1159,0.1154,0.1192,0.1248,0.126,0.1271,0.133,0.1345,0.1159,0.1159,0.1159,0,0.1075,0.1067,0.106,0.1062,0.1067,0.1071,0.1078,0.1082,0.1085,0.1101,0.1099,0.1129,0.1124,0.1156,0.1175,0.1166,0.1203,0.1161,0.1259,0.1269,0.1279,0.1337,0.1353,0.1162,0.1162,0.1162,0.1161,0,0.1068,0.1074,0.1074,0.1081,0.1085,0.1091,0.1098,0.1116,0.1132,0.1141,0.1184,0.1187,0.1208,0.1217,0.1206,0.1275,0.1282,0.1262,0.1239,0.1297,0.1354,0.137,0.1167,0.1166,0.1165,0.1164,0,0,0.1074,0.1072,0.1077,0.1085,0.1098,0.1097,0.1124,0.1147,0.1175,0.1198,0.1241,0.1262,0.1281,0.1283,0.1289,0.1336,0.1442,0.1335,0.1336,0.1396,0.1584,0.1487,0.1495,0.1448,0.145,0.1452,0.1604,0,0.1083,0.1085,0.1086,0.1102,0.1106,0.1124,0.1145,0.1171,0.12,0.1243,0.1276,0.1312,0.1301,0.1326,0.1375,0.1419,0.1483,0.1403,0.1515,0.1519,0.1428,0.1509,0.128,0.1387,0.1619,0.1622,0.1624,0,0.1083,0.1084,0.1097,0.1114,0.112,0.1134,0.1178,0.1197,0.1257,0.1286,0.134,0.1364,0.1438,0.1419,0.1543,0.1498,0.1552,0.1587,0.1593,0.1487,0.145,0.1362,0.1406,0.165,0.1648,0.1646,0.1644,0,0.1082,0.1096,0.1106,0.1111,0.1129,0.1151,0.1169,0.1217,0.1241,0.1324,0.1362,0.1442,0.1489,0.1571,0.1641,0.1609,0.1782,0.1741,0.1711,0.1706,0.1521,0.1493,0.1846,0.1846,0.1845,0.1845,0.1844,0,0.1081,0.1093,0.1108,0.1111,0.1132,0.1151,0.1187,0.1221,0.128,0.1319,0.1387,0.1439,0.1531,0.1627,0.1689,0.1754,0.1828,0.1737,0.1742,0.1537,0.151,0.1731,0.1715,0.1851,0.1849,0.1848,0.1847,0,0.1073,0.1085,0.1095,0.1119,0.1129,0.1144,0.1179,0.1203,0.127,0.1331,0.1362,0.1463,0.1586,0.1684,0.1823,0.1796,0.1878,0.1887,0.1641,0.1612,0.1756,0.1742,0.1861,0.1859,0.1858,0.1856,0.1855,0,0.1063,0.1068,0.1093,0.1095,0.1107,0.1129,0.1142,0.1195,0.1221,0.1338,0.1366,0.1501,0.1571,0.1734,0.1706,0.179,0.1908,0.1643,0.1514,0.1767,0.176,0.1749,0.1738,0.1318,0.1313,0.1308,0.1305,0,0.1039,0.1058,0.1063,0.1071,0.1083,0.1088,0.1115,0.1132,0.1204,0.1262,0.135,0.1418,0.1507,0.146,0.1537,0.1547,0.1598,0.1549,0.191,0.1327,0.126,0.1251,0.1258,0.1264,0.1268,0.1271,0.1273,0.1275,0.1021,0.1021,0.1031,0.1036,0.1044,0.1041,0.1039,0.1072,0.1108,0.117,0.1267,0.1292,0.125,0.1215,0.1242,0.1246,0.1337,0.1285,0.1297,0.1315,0.1202,0.1133,0.1094,0.1097,0.11,0.1102,0.1104,0,0.0983,0.099,0.099,0.0984,0.0969,0.0999,0.101,0.0994,0.1018,0.1046,0.1103,0.0928,0.0898,0.096,0.0846,0.0833,0.0805,0.0864,0.0814,0.085,0.0883,0.0749,0.0522,0.0521,0.0521,0.052,0,0,0.096,0.0947,0.0948,0.0909,0.0912,0.0892,0.0896,0.0878,0.0863,0.0809,0.0769,0.08,0.0808,0.0612,0.0592,0.0569,0.0713,0.0536,0.0977,0.0946,0.0979,0.1074,0.09,0,0,0,0,0]},{"header":{"parameterUnit":"m.s-1","parameterCategory":2,"la1":30.2991,"la2":30.254,"lo1":-89.0895,"lo2":-89.0444,"dy":0.0017,"dx":0.0017,"nx":28,"ny":28,"refTime":"2025-12-28T09:00:00:Z","depth":"2","parameterNumber":3,"parameterNumberName":"V-component_of_CURRENTS"},"data":[0,0,0,0,0,0,0,0,0,0,0,0,0,0,0,0,0,0,0,0,0,0,0,0,0,0,0,0,0,0,0,0,0,0,0,0,0,0,0,0,0,0,0,0,0,0,0,0,0,0,0,0,0,0,0,0,0,0,0.0017,0.0017,0,-0.0023,-0.0023,-0.0024,-0.0055,-0.0055,-0.0055,-0.0055,-0.0127,-0.0129,-0.013,0,0,0,0,0,0,0,0,0,0,0,0,0,0.0061,0.0061,0.0017,0.0017,0.0016,-0.0023,-0.0023,-0.0024,-0.0054,-0.0055,-0.0055,-0.0056,-0.0127,-0.0129,-0.0131,0,0,0,0,0,0,0,0,0,0,0,0,0,0.0034,0.006,0.0017,-0.0004,-0.0006,-0.0023,-0.0023,-0.0024,-0.0054,-0.0055,-0.0055,-0.0056,-0.0126,-0.0128,-0.0131,-0.0136,0,0,-0.0138,-0.0139,0,0,0,0,0,0,0,0,0.0036,0.0033,-0.0,-0.0003,-0.0005,-0.0034,-0.0034,-0.0063,-0.0054,-0.0036,-0.0055,-0.0056,-0.0099,-0.0104,-0.0109,-0.0139,-0.0143,-0.0138,-0.014,-0.0141,-0.0142,0,0,0,0,0,0,0,0.0038,0.0034,0.0002,-0.0001,-0.0004,-0.0014,-0.0018,-0.0039,-0.0065,-0.0038,-0.004,-0.0045,-0.0101,-0.0107,-0.0111,-0.0144,-0.0138,-0.0141,-0.0142,-0.0143,-0.0216,-0.0217,0,0,0,0,0,0,0.0043,0.0036,0.0003,0.0,0.0014,-0.0014,-0.0019,-0.0024,-0.0064,-0.007,-0.0044,-0.0046,-0.0102,-0.0108,-0.0114,-0.0138,-0.0141,-0.0143,-0.0145,-0.0216,-0.0216,-0.0217,0,0,0,0,0,0,0.0044,0.004,0.0005,0.0017,0.0012,-0.0014,-0.002,-0.0025,-0.0044,-0.0069,-0.0076,-0.006,-0.0103,-0.0111,-0.014,-0.0141,-0.0144,-0.0146,-0.0215,-0.0216,-0.0217,-0.0177,0,0,0,0,0,0,0.0045,0.0041,0.0034,0.0017,0.0011,-0.0009,-0.002,-0.0025,-0.0045,-0.0048,-0.0084,-0.009,-0.0104,-0.0136,-0.0142,-0.0144,-0.0148,-0.0214,-0.0215,-0.0216,-0.0178,-0.0176,-0.0175,0,0,0,0,0,0.0047,0.0042,0.0034,0.0029,0.0004,-0.0009,-0.0013,-0.0033,-0.0046,-0.0052,-0.0077,-0.009,-0.0146,-0.0138,-0.0145,-0.0148,-0.0214,-0.0215,-0.0216,-0.0178,-0.0176,-0.0175,0,0,0,0,0,0,0.0053,0.0038,0.0028,0.0017,0.0003,-0.0015,-0.0024,-0.0039,-0.0063,-0.007,-0.0095,-0.0102,-0.0128,-0.0148,-0.0138,-0.0174,-0.0183,-0.0186,-0.0152,-0.0151,-0.0149,-0.0129,-0.015,0,0,0,0,0,0.0053,0.0045,0.0029,0.0018,0.0013,-0.0008,-0.0019,-0.0032,-0.0053,-0.0064,-0.0089,-0.0117,-0.0136,-0.0151,-0.0173,-0.0193,-0.0195,-0.0202,-0.02,-0.0199,-0.0189,-0.0197,-0.0195,-0.0221,-0.0221,-0.022,0,0,0.0051,0.0041,0.0035,0.0019,0.0006,0.0004,-0.0016,-0.0032,-0.0036,-0.0068,-0.0089,-0.0114,-0.0141,-0.0159,-0.0173,-0.0177,-0.0193,-0.02,-0.0199,-0.0189,-0.0198,-0.0195,-0.0193,-0.0221,-0.0221,-0.0221,0,0,0.0052,0.0036,0.0034,0.0027,0.001,0.0002,-0.0004,-0.0027,-0.004,-0.0063,-0.0082,-0.0104,-0.0147,-0.0154,-0.0165,-0.0172,-0.0185,-0.0191,-0.0167,-0.0175,-0.0173,-0.017,-0.016,-0.0158,-0.0191,-0.0191,-0.019,0,0.0048,0.0047,0.003,0.0032,0.0031,0.0003,0.0007,-0.0008,-0.0039,-0.0042,-0.0068,-0.011,-0.0137,-0.0139,-0.0145,-0.0165,-0.0171,-0.0166,-0.0171,-0.0169,-0.0167,-0.0158,-0.0155,-0.0189,-0.0189,-0.0189,-0.0189,0,0.0055,0.0053,0.0051,0.0048,0.0045,0.004,0.0027,0.0016,-0.0008,-0.002,-0.004,-0.0076,-0.0098,-0.0115,-0.0135,-0.0136,-0.0143,-0.0165,-0.0168,-0.0162,-0.0153,-0.0151,-0.0186,-0.0187,-0.0187,-0.0188,0,0,0.0047,0.0055,0.0053,0.0064,0.0055,0.0056,0.0055,0.0053,0.0062,0.0018,0.0029,-0.0018,-0.0043,-0.0057,-0.0086,-0.0096,-0.0092,-0.0128,-0.013,-0.0105,-0.01,-0.0057,-0.0051,-0.012,-0.012,-0.012,-0.0095,0,0.0055,0.0072,0.0072,0.0089,0.01,0.0091,0.01,0.0096,0.0081,0.0083,0.0048,0.0036,-0.0019,-0.0031,-0.0051,-0.0078,-0.0087,-0.0096,-0.0122,-0.0122,-0.0073,-0.0047,-0.0101,-0.008,-0.0093,-0.0092,-0.0092,0,0.0063,0.0076,0.0096,0.0127,0.0131,0.0135,0.0157,0.0161,0.0161,0.0152,0.0132,0.0103,0.0083,0.003,-0.001,-0.0017,-0.0058,-0.0082,-0.0082,-0.0052,-0.0074,-0.0092,-0.0075,-0.0089,-0.0089,-0.0089,-0.0089,0,0.0076,0.0096,0.0116,0.0122,0.0147,0.0156,0.0165,0.0175,0.0194,0.0192,0.0208,0.017,0.0157,0.0101,0.004,0.0009,0.001,-0.0039,-0.0034,-0.0031,-0.0085,-0.0086,-0.0067,-0.0067,-0.0067,-0.0067,-0.0067,0,0.0092,0.0107,0.012,0.0132,0.0164,0.0172,0.0205,0.0214,0.0238,0.0279,0.0236,0.0269,0.0169,0.0154,0.0083,0.0052,0.0039,-0.0011,-0.0017,-0.0071,-0.0072,-0.0093,-0.0096,-0.0066,-0.0067,-0.0067,-0.0067,0,0.0106,0.011,0.0138,0.0162,0.0169,0.0189,0.0231,0.0268,0.0279,0.0335,0.0337,0.034,0.0332,0.0257,0.019,0.0121,0.0081,0.0067,0.0027,0.0016,0.0031,0.0029,0.0074,0.0076,0.0077,0.0079,0.008,0,0.0116,0.013,0.0157,0.0176,0.0183,0.0214,0.0251,0.0278,0.0328,0.0393,0.0438,0.0444,0.0493,0.0435,0.029,0.0201,0.0164,0.0095,0.0025,0.0059,0.0048,0.0043,0.0039,-0.0037,-0.0037,-0.0037,-0.0037,0,0.0143,0.0144,0.017,0.0206,0.0238,0.0292,0.0343,0.0394,0.0449,0.0514,0.0621,0.067,0.06,0.0492,0.0356,0.0278,0.0105,0.0096,0.0137,-0.005,-0.004,-0.0053,-0.0055,-0.0037,-0.0037,-0.0037,-0.0037,-0.0037,0.0161,0.0185,0.0212,0.0251,0.0291,0.0372,0.0428,0.0516,0.0621,0.075,0.0784,0.0818,0.0605,0.0424,0.0315,0.0163,0.0163,0.006,0.0057,0.0054,0.0052,0.0066,0.0088,0.0089,0.0089,0.009,0.009,0,0.0192,0.0218,0.026,0.0315,0.0374,0.0377,0.0497,0.0591,0.0736,0.082,0.094,0.0727,0.0612,0.0408,0.0171,0.0067,0.0021,0.0038,-0.0039,-0.0039,-0.0039,-0.0049,-0.0038,-0.0038,-0.0038,-0.0038,0,0,0.0213,0.0259,0.0287,0.0379,0.0409,0.0497,0.0566,0.0724,0.0799,0.0915,0.0875,0.0875,0.0562,0.0344,0.0183,0.0079,0.0061,0.0069,0.0173,0.01,0.0102,-0.0035,-0.0051,0,0,0,0,0]}],[{"header":{"parameterUnit":"m.s-1","parameterCategory":2,"la1":30.2991,"la2":30.254,"lo1":-89.0895,"lo2":-89.0444,"dy":0.0017,"dx":0.0017,"nx":28,"ny":28,"refTime":"2025-12-28T09:00:00:Z","depth":"4","parameterNumber":2,"parameterNumberName":"U-component_of_CURRENTS"},"data":[0,0,0,0,0,0,0,0,0,0,0,0,0,0,0,0,0,0,0,0,0,0,0,0,0,0,0,0,0,0,0,0,0,0,0,0,0,0,0,0,0,0,0,0,0,0,0,0,0,0,0,0,0,0,0,0,0,0,-0.0137,-0.0137,0,-0.0131,-0.0131,-0.013,-0.0107,-0.0107,-0.0107,-0.0107,-0.0013,-0.0011,-0.0009,0,0,0,0,0,0,0,0,0,0,0,0,0,-0.0136,-0.0135,-0.0137,-0.0137,-0.0137,-0.0131,-0.0131,-0.013,-0.0108,-0.0107,-0.0107,-0.0107,-0.0014,-0.0011,-0.0009,0,0,0,0,0,0,0,0,0,0,0,0,0,-0.013,-0.0135,-0.0137,-0.0128,-0.0127,-0.0131,-0.0131,-0.013,-0.0108,-0.0107,-0.0107,-0.0107,-0.0015,-0.0012,-0.0008,0.0007,0,0,0.0002,0.0004,0,0,0,0,0,0,0,0,-0.0131,-0.013,-0.0129,-0.0128,-0.0128,-0.0123,-0.0096,-0.0081,-0.0108,-0.0111,-0.0107,-0.0107,-0.0044,-0.0038,-0.0034,0.0011,0.0015,0.0003,0.0005,0.0006,0.0007,0,0,0,0,0,0,0,-0.0131,-0.013,-0.0131,-0.0129,-0.0129,-0.0127,-0.0125,-0.0093,-0.0075,-0.0111,-0.011,-0.0115,-0.0043,-0.0038,-0.0032,0.0017,0.0003,0.0006,0.0008,0.0009,0.0164,0.0166,0,0,0,0,0,0,-0.0139,-0.013,-0.0131,-0.0131,-0.0132,-0.0127,-0.0125,-0.0122,-0.0077,-0.0072,-0.0115,-0.0114,-0.0044,-0.0036,-0.0028,0.0072,0.0006,0.0009,0.0011,0.0162,0.0164,0.0167,0,0,0,0,0,0,-0.0138,-0.0138,-0.0131,-0.0134,-0.0133,-0.0128,-0.0124,-0.0122,-0.0105,-0.0083,-0.0075,-0.01,-0.0043,-0.0033,0.001,0.0073,0.0011,0.0014,0.016,0.0163,0.0166,0.0223,0,0,0,0,0,0,-0.0138,-0.0138,-0.0138,-0.0134,-0.0134,-0.0125,-0.0125,-0.0122,-0.0111,-0.0109,-0.0066,-0.0058,-0.0042,0.0005,0.0014,0.0077,0.0017,0.0157,0.0161,0.0165,0.0218,0.0227,0.0235,0,0,0,0,0,-0.0138,-0.0139,-0.0137,-0.0138,-0.0133,-0.0125,-0.0124,-0.0117,-0.011,-0.01,-0.0072,-0.0059,0.0037,0.0008,0.0018,0.0084,0.0155,0.016,0.0164,0.0214,0.0225,0.0235,0,0,0,0,0,0,-0.0139,-0.0137,-0.0135,-0.0135,-0.0128,-0.0122,-0.0119,-0.011,-0.0082,-0.0074,-0.0048,-0.0038,0.003,0.0042,0.001,0.0141,0.0105,0.0112,0.014,0.015,0.0159,0.0171,0.002,0,0,0,0,0,-0.0141,-0.0139,-0.0134,-0.0134,-0.0129,-0.012,-0.0116,-0.0107,-0.0087,-0.0074,-0.0036,0.0007,0.0055,0.0087,0.0123,0.0185,0.0168,0.0239,0.0247,0.0254,0.0272,0.0274,0.0283,0.0182,0.0182,0.0182,0,0,-0.0145,-0.0142,-0.0143,-0.0135,-0.0128,-0.0112,-0.0115,-0.0103,-0.0073,-0.0066,-0.0003,0.0033,0.0074,0.0147,0.0181,0.0168,0.0273,0.026,0.0266,0.028,0.0279,0.0289,0.0298,0.0185,0.0184,0.0184,0,0,-0.0147,-0.0144,-0.0139,-0.0127,-0.0115,-0.0106,-0.0099,-0.0072,-0.0042,0.0018,0.0035,0.0096,0.0177,0.0215,0.0245,0.032,0.031,0.0352,0.0416,0.0418,0.0425,0.0432,0.0408,0.0412,0.0364,0.0365,0.0365,0,-0.015,-0.0141,-0.0137,-0.0122,-0.0108,-0.0099,-0.0078,-0.0049,-0.0005,0.0043,0.0051,0.0186,0.0213,0.0302,0.0341,0.0342,0.0332,0.0372,0.0427,0.0433,0.0439,0.0413,0.0417,0.0368,0.0368,0.0367,0.0367,0,-0.0143,-0.013,-0.0124,-0.0099,-0.0083,-0.0066,-0.0029,0.0018,0.0067,0.0114,0.0225,0.0266,0.0356,0.0381,0.0394,0.0472,0.0446,0.0426,0.0395,0.0452,0.0421,0.0424,0.0373,0.0371,0.037,0.037,0,0,-0.0154,-0.0126,-0.012,-0.0099,-0.0066,-0.0048,0.0015,0.0085,0.015,0.0227,0.0322,0.042,0.0466,0.0503,0.0525,0.0539,0.0567,0.052,0.0518,0.0486,0.056,0.0456,0.0448,0.0559,0.0561,0.0562,0.0515,0,-0.0145,-0.0115,-0.0099,-0.0058,-0.0036,0.0006,0.0068,0.0139,0.0219,0.0316,0.0392,0.0494,0.0505,0.0569,0.0586,0.0576,0.0582,0.0581,0.0519,0.0517,0.0409,0.0451,0.0566,0.0517,0.0517,0.0518,0.0518,0,-0.0136,-0.0114,-0.0076,-0.0018,-0.0001,0.0038,0.0148,0.0212,0.0343,0.0416,0.0531,0.0585,0.0666,0.0647,0.0663,0.0667,0.0635,0.0604,0.0601,0.049,0.042,0.0453,0.0523,0.0522,0.0522,0.0521,0.0521,0,-0.0137,-0.0094,-0.0061,-0.0043,0.0024,0.0081,0.0145,0.0267,0.0346,0.0503,0.0571,0.0666,0.0723,0.0712,0.0664,0.0687,0.0619,0.0632,0.0499,0.049,0.057,0.0563,0.0627,0.0627,0.0627,0.0627,0.0628,0,-0.0129,-0.0103,-0.0049,-0.0027,0.0045,0.0108,0.0226,0.0306,0.044,0.0521,0.064,0.0666,0.0744,0.0712,0.0671,0.0573,0.0623,0.0519,0.0479,0.0593,0.059,0.057,0.0564,0.0626,0.0626,0.0626,0.0627,0,-0.0136,-0.0108,-0.007,0.0008,0.0046,0.0114,0.0263,0.0345,0.0475,0.0576,0.0632,0.0696,0.0646,0.0641,0.0591,0.0567,0.0484,0.0422,0.0516,0.048,0.0364,0.0362,0.0334,0.033,0.0327,0.0324,0.0322,0,-0.0137,-0.0119,-0.0052,-0.0011,0.0033,0.0151,0.0228,0.0367,0.0442,0.0538,0.0555,0.0563,0.0577,0.0434,0.0413,0.0335,0.0313,0.0318,0.04,0.0374,0.0338,0.0341,0.0344,0.0316,0.0316,0.0315,0.0314,0,-0.0143,-0.0124,-0.0094,-0.0016,0.0059,0.0146,0.0264,0.0308,0.0439,0.0527,0.0506,0.049,0.0405,0.0355,0.0291,0.0221,0.0363,0.0285,0.0294,0.0371,0.0352,0.0321,0.0327,0.0302,0.0304,0.0305,0.0306,0,-0.0149,-0.0136,-0.0095,-0.0019,0.006,0.0128,0.0194,0.0266,0.0347,0.0455,0.0393,0.0358,0.037,0.0281,0.018,0.0147,0.0175,0.0235,0.0248,0.026,0.0252,0.0219,0.0102,0,0,0,0,0,-0.0148,-0.0131,-0.0087,-0.0011,0.0061,0.0111,0.0204,0.0264,0.0348,0.0333,0.0395,0.0303,0.0225,0.0169,0.0116,0.0106,0.0149,0.0045,0.0221,0.0239,0.0253,0.0247,0,0,0,0,0,0,-0.0148,-0.0121,-0.0104,-0.0019,0.0036,0.0114,0.0163,0.0211,0.0223,0.0292,0.0228,0.0299,0.0186,0.024,0.011,0.0099,0.0211,0.0028,0.0028,0.0232,0.0244,0.0254,0.0253,0,0,0,0,0]},{"header":{"parameterUnit":"m.s-1","parameterCategory":2,"la1":30.2991,"la2":30.254,"lo1":-89.0895,"lo2":-89.0444,"dy":0.0017,"dx":0.0017,"nx":28,"ny":28,"refTime":"2025-12-28T09:00:00:Z","depth":"4","parameterNumber":3,"parameterNumberName":"V-component_of_CURRENTS"},"data":[0,0,0,0,0,0,0,0,0,0,0,0,0,0,0,0,0,0,0,0,0,0,0,0,0,0,0,0,0,0,0,0,0,0,0,0,0,0,0,0,0,0,0,0,0,0,0,0,0,0,0,0,0,0,0,0,0,0,0.0456,0.0456,0,0.0462,0.0462,0.0462,0.0505,0.0506,0.0506,0.0507,0.0576,0.0577,0.0578,0,0,0,0,0,0,0,0,0,0,0,0,0,0.0453,0.0454,0.0456,0.0456,0.0456,0.0462,0.0462,0.0462,0.0505,0.0506,0.0506,0.0507,0.0576,0.0577,0.0578,0,0,0,0,0,0,0,0,0,0,0,0,0,0.0459,0.0454,0.0457,0.0476,0.0477,0.0462,0.0462,0.0463,0.0504,0.0506,0.0507,0.0508,0.0575,0.0577,0.0579,0.0566,0,0,0.0584,0.0584,0,0,0,0,0,0,0,0,0.0459,0.046,0.0473,0.0474,0.0476,0.0481,0.0486,0.0499,0.0504,0.0497,0.0507,0.0508,0.0548,0.0552,0.0553,0.0569,0.0572,0.0584,0.0585,0.0586,0.0586,0,0,0,0,0,0,0,0.0458,0.0459,0.0462,0.0473,0.0474,0.0473,0.0476,0.0489,0.0519,0.0498,0.05,0.0496,0.0549,0.0551,0.0555,0.0573,0.0584,0.0585,0.0586,0.0587,0.0596,0.0596,0,0,0,0,0,0,0.0452,0.0459,0.0461,0.0461,0.0467,0.0473,0.0476,0.0481,0.0518,0.0523,0.0495,0.0498,0.0548,0.0553,0.0558,0.0569,0.0586,0.0587,0.0588,0.0597,0.0596,0.0595,0,0,0,0,0,0,0.0452,0.0452,0.0461,0.0457,0.0458,0.0471,0.0477,0.048,0.0511,0.0514,0.0522,0.0525,0.0549,0.0556,0.0588,0.0571,0.0588,0.0589,0.0598,0.0597,0.0596,0.0575,0,0,0,0,0,0,0.0452,0.0453,0.0461,0.0457,0.0458,0.0466,0.0475,0.0479,0.0503,0.0508,0.0542,0.0548,0.0551,0.0586,0.059,0.0574,0.0591,0.0599,0.0597,0.0596,0.0577,0.0573,0.0571,0,0,0,0,0,0.0452,0.0455,0.0462,0.0462,0.0467,0.0466,0.0467,0.0481,0.0504,0.0515,0.054,0.0548,0.0578,0.0587,0.0592,0.0576,0.06,0.0598,0.0596,0.0578,0.0574,0.0571,0,0,0,0,0,0,0.0456,0.0459,0.0467,0.0471,0.0474,0.0472,0.0481,0.0496,0.0524,0.054,0.0554,0.0561,0.0577,0.0582,0.0592,0.0571,0.0584,0.0583,0.0568,0.0564,0.0561,0.0555,0.0592,0,0,0,0,0,0.0459,0.0469,0.0467,0.0473,0.0476,0.0486,0.0491,0.0505,0.0521,0.0536,0.0558,0.057,0.0567,0.0575,0.0581,0.0582,0.0567,0.0569,0.0566,0.0563,0.056,0.0511,0.0503,0.059,0.059,0.059,0,0,0.0461,0.0464,0.047,0.0475,0.0481,0.0485,0.0495,0.051,0.0522,0.0538,0.0573,0.0573,0.0568,0.0562,0.0568,0.057,0.0532,0.0561,0.0559,0.0557,0.0508,0.05,0.0492,0.0588,0.0589,0.0589,0,0,0.0464,0.0475,0.0484,0.0489,0.05,0.0501,0.0513,0.0527,0.0544,0.0568,0.0569,0.0563,0.0583,0.0556,0.0547,0.0532,0.0522,0.053,0.0507,0.0459,0.0452,0.0445,0.0422,0.0413,0.0522,0.0522,0.0522,0,0.0467,0.0479,0.0485,0.0494,0.0498,0.0512,0.0522,0.0532,0.0558,0.0564,0.0583,0.0568,0.0571,0.053,0.0516,0.0524,0.0504,0.0523,0.0455,0.0447,0.0441,0.0419,0.0409,0.0521,0.0521,0.0522,0.0522,0,0.0473,0.0488,0.0493,0.0508,0.0514,0.0525,0.0532,0.0553,0.0576,0.0575,0.0567,0.0554,0.0537,0.0523,0.0518,0.0458,0.0463,0.0461,0.0464,0.0431,0.041,0.04,0.052,0.052,0.052,0.0521,0,0,0.0465,0.0492,0.0498,0.0506,0.0526,0.0527,0.0548,0.0552,0.0557,0.0566,0.0552,0.0524,0.0508,0.0494,0.047,0.0422,0.0358,0.0418,0.0416,0.0396,0.0265,0.0275,0.0266,0.034,0.0338,0.0336,0.0272,0,0.047,0.0491,0.0502,0.0518,0.0528,0.0543,0.0555,0.0563,0.0566,0.0555,0.0523,0.0507,0.0497,0.048,0.0425,0.0373,0.033,0.0376,0.03,0.0298,0.0311,0.0253,0.033,0.0265,0.0263,0.0262,0.026,0,0.0472,0.0487,0.0514,0.0526,0.0531,0.0549,0.056,0.0572,0.0557,0.0556,0.052,0.0494,0.0424,0.0426,0.0313,0.0341,0.0303,0.0266,0.0263,0.0271,0.0289,0.0304,0.0243,0.0244,0.0246,0.0247,0.0248,0,0.0463,0.0487,0.0512,0.052,0.0542,0.0565,0.0583,0.0585,0.0594,0.056,0.0544,0.0463,0.0425,0.035,0.0276,0.0289,0.0157,0.0168,0.0145,0.0146,0.0169,0.0177,0.0094,0.0094,0.0094,0.0094,0.0094,0,0.0458,0.0472,0.052,0.0532,0.056,0.0579,0.0607,0.0606,0.0606,0.0577,0.0546,0.0468,0.0401,0.0318,0.0258,0.0165,0.0143,0.0127,0.0118,0.0164,0.0172,0.0163,0.0172,0.0092,0.0092,0.0093,0.0093,0,0.0443,0.0476,0.0497,0.0539,0.0564,0.0589,0.0646,0.0649,0.0652,0.0609,0.0598,0.0481,0.0355,0.03,0.017,0.0148,0.0062,0.0044,0.0104,0.0103,0.0092,0.01,0.0003,0.0003,0.0002,0.0002,0.0002,0,0.0436,0.0453,0.0508,0.0541,0.0573,0.0628,0.0661,0.0681,0.0669,0.0576,0.0525,0.0416,0.033,0.0151,0.0093,0.0017,0.0017,0.0007,0.004,0.0075,0.0076,0.0086,0.0095,0.0001,0.0001,0.0001,0.0001,0,0.0412,0.0442,0.0463,0.0535,0.0583,0.0622,0.0661,0.0636,0.0613,0.0625,0.0439,0.0344,0.0207,0.0091,0.0068,-0.0003,0.0027,0.0003,0.0004,0.0034,0.0071,0.0075,0.0084,-0.0,-0.0,-0.0,-0.0,0,0.0395,0.0404,0.0449,0.0506,0.057,0.0579,0.0597,0.056,0.0546,0.0452,0.0362,0.0223,0.0162,0.0075,0.0007,-0.0009,-0.0011,0.0006,0.0007,0.0008,0.0041,0.0091,-0.0001,0,0,0,0,0,0.0371,0.0383,0.0424,0.0464,0.0528,0.0572,0.0578,0.058,0.0535,0.041,0.0401,0.0262,0.0135,0.0044,0.0025,0.0014,0.0003,-0.0005,0.0027,-0.0008,-0.0006,0.0034,0,0,0,0,0,0,0.0355,0.0385,0.0398,0.043,0.0467,0.0513,0.0512,0.0478,0.041,0.0362,0.0278,0.029,0.0159,0.0158,0.0033,0.0024,0.0048,-0.0044,-0.0044,-0.0009,-0.0007,-0.0006,0.0035,0,0,0,0,0]}]]